Location: *
(45.9500°N, 9.0833°E)
Time: 21:36:25
(UTC+00:00)

Vanguard 1 - Visible Passes

Search period start: 13 June 2021 00:00
Search period end: 23 June 2021 00:00
Orbit: 650 x 3832 km, 34.2° (Epoch: 12 June)

Date Brightness Start Highest point End Pass type
(mag) Time Alt. Az. Time Alt. Az. Time Alt. Az.
13 Jun 11.7 00:16:31 10° WSW 00:31:52 47° S 00:40:28 10° ESE visible
13 Jun 11.4 02:42:30 10° W 02:52:22 32° SSW 02:58:25 10° SE visible
13 Jun 13.1 19:51:28 10° SSW 20:07:23 25° SSE 20:19:28 10° E visible
13 Jun 12.3 22:12:16 10° SW 22:30:32 43° SSE 22:41:40 10° E visible
14 Jun 11.6 00:37:42 10° WSW 00:52:43 47° S 01:01:06 10° ESE visible
14 Jun 12.9 20:10:29 10° SSW 20:28:17 31° SSE 20:41:13 10° E visible
14 Jun 12.1 22:32:56 10° SW 22:51:31 47° S 23:02:34 10° ESE visible
15 Jun 11.6 00:58:58 10° WSW 01:13:31 45° SSW 01:21:40 10° ESE visible
15 Jun 12.8 20:30:05 10° SSW 20:49:14 37° SSE 21:02:36 10° E visible
15 Jun 12.1 22:53:50 10° WSW 23:12:31 50° S 23:23:22 10° ESE visible
16 Jun 11.6 01:20:20 10° W 01:34:12 42° SSW 01:42:07 10° SE visible
16 Jun 12.7 20:50:08 10° SW 21:10:12 42° SSE 21:23:47 10° E visible
16 Jun 12.0 23:14:56 10° WSW 23:33:28 52° S 23:44:07 10° ESE visible
17 Jun 11.7 01:41:46 10° W 01:54:48 37° SSW 02:02:26 10° SE visible
17 Jun 12.5 21:10:33 10° SW 21:31:13 47° SSE 21:44:48 10° E visible
17 Jun 11.9 23:36:09 10° WSW 23:54:24 52° S 00:04:47 10° ESE visible
18 Jun 11.8 02:03:18 10° W 02:15:17 32° SSW 02:22:34 10° SSE visible
18 Jun 12.5 21:31:14 10° SW 21:52:14 51° S 22:05:44 10° E visible
18 Jun 11.9 23:57:29 10° W 00:15:15 50° SSW 00:25:23 10° ESE visible
19 Jun 12.0 02:25:02 10° W 02:35:36 26° SW 02:42:25 10° SSE visible
19 Jun 13.0 19:28:47 10° SSW 19:49:11 40° SSE 20:05:04 10° E visible
19 Jun 12.4 21:52:09 10° WSW 22:13:17 54° S 22:26:35 10° ESE visible
20 Jun 11.9 00:18:53 10° W 00:36:01 47° SSW 00:45:51 10° SE visible
20 Jun 12.2 02:47:05 10° W 02:55:48 20° SW 03:01:52 10° S visible
20 Jun 12.9 19:48:52 10° SW 20:10:08 46° SSE 20:26:16 10° E visible
20 Jun 12.3 22:13:14 10° WSW 22:34:19 55° S 22:47:22 10° ESE visible
21 Jun 12.0 00:40:23 10° W 00:56:40 42° SSW 01:06:11 10° SE visible
21 Jun 12.8 20:09:17 10° SW 20:31:09 50° SSE 20:47:21 10° E visible
21 Jun 12.3 22:34:28 10° WSW 22:55:20 55° S 23:08:04 10° ESE visible
22 Jun 12.1 01:01:57 10° W 01:17:11 37° SSW 01:26:21 10° SSE visible
22 Jun 12.7 20:29:57 10° WSW 20:52:13 54° SSE 21:08:20 10° E visible
22 Jun 12.3 22:55:47 10° W 23:16:16 54° SSW 23:28:42 10° ESE visible
